User: anonymous   Login
Location: Vancouver
(49.2500°N, 123.1330°W)
Time: 00:47:09
(UTC-07:00)
Language:

Cosmos 1864 Rocket - Orbit

View from above orbital plane
View from above orbital plane
View from above satellite
View from above satellite

Ground track
Ground track

The orbit data is extracted from the following two-line orbital elements,

1 18161U 87057B   16207.92465207 +.00000056 +00000-0 +40420-4 0  9990
2 18161 082.9364 314.7225 0032103 144.7585 353.5227 13.76946057439065
Epoch (UTC): 25 July 2016 22:11:29
Eccentricity: 0.0032103
inclination: 82.9364°
perigee height: 951 km
apogee height: 998 km
right ascension of ascending node: 314.7225°
argument of perigee: 144.7585°
revolutions per day: 13.76946057
mean anomaly at epoch: 353.5227°
orbit number at epoch: 43906

The dashed part of the orbit path shows where the satellite is in the earth's shadow,  

DLR